| time (UTC) | temp C | wind direction | speed KPH | gust KPH | rain 1hr cm | rain 24hr cm | rain mn cm | humidity % | barometer mb |
| 20260506044549 | 14 | 128 | 0.0 | 0.0 | 0.00 | 0.00 | 0.00 | 80 | 1005.6 |
| 20260506043021 | 14 | 128 | 0.0 | 0.0 | 0.00 | 0.00 | 0.00 | 81 | 1005.4 |
| 20260506041518 | 14 | 128 | 0.0 | 0.0 | 0.00 | 0.00 | 0.00 | 80 | 1005.5 |
| 20260506040015 | 14 | 128 | 0.0 | 0.0 | 0.00 | 0.00 | 0.00 | 79 | 1005.5 |
| 20260506034537 | 15 | 128 | 0.0 | 0.0 | 0.00 | 0.00 | 0.00 | 78 | 1005.6 |
| 20260506033013 | 15 | 128 | 0.0 | 0.0 | 0.00 | 0.00 | 0.00 | 77 | 1005.6 |
| 20260506031515 | 15 | 128 | 0.0 | 0.0 | 0.00 | 0.00 | 0.00 | 75 | 1005.6 |
| 20260506030012 | 16 | 128 | 0.0 | 0.0 | 0.00 | 0.00 | 0.00 | 73 | 1005.6 |
| 20260506024512 | 16 | 128 | 0.0 | 0.0 | 0.00 | 0.00 | 0.00 | 74 | 1005.6 |
| 20260506023012 | 16 | 128 | 0.0 | 0.0 | 0.00 | 0.00 | 0.00 | 72 | 1005.7 |
| 20260506021512 | 17 | 128 | 0.0 | 0.0 | 0.00 | 0.00 | 0.00 | 69 | 1005.6 |
| 20260506020011 | 18 | 128 | 0.0 | 0.0 | 0.00 | 0.00 | 0.00 | 66 | 1005.6 |
| 20260506014512 | 18 | 128 | 0.0 | 0.0 | 0.00 | 0.00 | 0.00 | 63 | 1005.6 |
| 20260506013010 | 18 | 122 | 0.0 | 0.0 | 0.00 | 0.00 | 0.00 | 67 | 1005.5 |
| 20260506011514 | 18 | 122 | 0.0 | 0.0 | 0.00 | 0.00 | 0.00 | 67 | 1005.4 |
| 20260506010009 | 18 | 122 | 0.0 | 0.0 | 0.00 | 0.00 | 0.00 | 63 | 1005.2 |
| 20260506004515 | 20 | 122 | 0.0 | 0.0 | 0.00 | 0.00 | 0.00 | 59 | 1004.7 |
| 20260506003009 | 20 | 122 | 0.0 | 0.0 | 0.00 | 0.00 | 0.00 | 55 | 1004.7 |
| 20260506001508 | 21 | 122 | 0.0 | 0.0 | 0.00 | 0.00 | 0.00 | 52 | 1004.6 |
| 20260506000006 | 21 | 122 | 0.0 | 0.0 | 0.00 | 0.00 | 0.00 | 51 | 1004.6 |
| 20260505234509 | 22 | 122 | 0.0 | 0.0 | 0.00 | 0.00 | 0.00 | 49 | 1004.6 |
| 20260505233008 | 22 | 123 | 0.0 | 0.0 | 0.00 | 0.00 | 0.00 | 50 | 1004.4 |
| 20260505231510 | 22 | 150 | 0.0 | 0.0 | 0.00 | 0.00 | 0.00 | 47 | 1004.4 |
| 20260505230008 | 22 | 115 | 0.0 | 0.0 | 0.00 | 0.00 | 0.00 | 46 | 1004.2 |
| 20260505224506 | 23 | 118 | 0.0 | 0.0 | 0.00 | 0.00 | 0.00 | 45 | 1004.1 |
| 20260505223003 | 23 | 57 | 0.0 | 0.0 | 0.00 | 0.00 | 0.00 | 48 | 1004.0 |
| 20260505221504 | 23 | 33 | 0.0 | 0.0 | 0.00 | 0.00 | 0.00 | 46 | 1003.9 |
| 20260505220108 | 23 | 136 | 0.0 | 0.0 | 0.00 | 0.00 | 0.00 | 44 | 1003.6 |
| 20260505213002 | 25 | 199 | 0.0 | 0.0 | 0.00 | 0.00 | 0.00 | 41 | 1003.2 |
| 20260505211604 | 25 | 215 | 0.0 | 0.0 | 0.00 | 0.00 | 0.00 | 42 | 1003.2 |
| 20260505210101 | 25 | 89 | 0.0 | 0.0 | 0.00 | 0.00 | 0.00 | 40 | 1003.1 |
| 20260505204609 | 25 | 126 | 0.0 | 0.0 | 0.00 | 0.00 | 0.00 | 41 | 1003.2 |
| 20260505203100 | 25 | 132 | 0.0 | 0.0 | 0.00 | 0.00 | 0.00 | 41 | 1003.1 |
| 20260505201602 | 25 | 115 | 0.0 | 0.0 | 0.00 | 0.00 | 0.00 | 43 | 1003.2 |
| 20260505200104 | 24 | 128 | 0.0 | 0.0 | 0.00 | 0.00 | 0.00 | 48 | 1003.2 |
| 20260505194558 | 24 | 127 | 0.0 | 0.0 | 0.00 | 0.00 | 0.00 | 44 | 1003.1 |
| 20260505193100 | 25 | 169 | 0.0 | 0.0 | 0.00 | 0.00 | 0.00 | 42 | 1002.9 |
| 20260505191601 | 25 | 69 | 0.0 | 0.0 | 0.00 | 0.00 | 0.00 | 46 | 1002.8 |
| 20260505190056 | 26 | 193 | 0.0 | 0.0 | 0.00 | 0.00 | 0.00 | 44 | 1003.0 |
| 20260505184601 | 26 | 87 | 0.0 | 0.0 | 0.00 | 0.00 | 0.00 | 40 | 1003.6 |
| 20260505183052 | 26 | 180 | 0.0 | 0.0 | 0.00 | 0.00 | 0.00 | 46 | 1004.0 |
| 20260505181550 | 25 | 102 | 0.0 | 0.0 | 0.00 | 0.00 | 0.00 | 41 | 1004.0 |
| 20260505180054 | 25 | 113 | 0.0 | 0.0 | 0.00 | 0.00 | 0.00 | 41 | 1004.1 |
| 20260505174606 | 25 | 126 | 0.0 | 0.0 | 0.00 | 0.00 | 0.00 | 43 | 1004.3 |
| 20260505173047 | 25 | 128 | 0.0 | 0.0 | 0.00 | 0.00 | 0.00 | 41 | 1004.4 |
| 20260505171545 | 25 | 122 | 0.0 | 0.0 | 0.00 | 0.00 | 0.00 | 42 | 1004.2 |
| 20260505170105 | 25 | 150 | 0.0 | 0.0 | 0.00 | 0.00 | 0.00 | 43 | 1004.1 |
| 20260505164543 | 25 | 322 | 0.0 | 0.0 | 0.00 | 0.00 | 0.00 | 47 | 1004.6 |
| 20260505163043 | 24 | 207 | 0.0 | 0.0 | 0.00 | 0.00 | 0.00 | 46 | 1004.8 |
| 20260505161540 | 25 | 136 | 0.0 | 0.0 | 0.00 | 0.00 | 0.00 | 45 | 1005.1 |
| 20260505153045 | 24 | 111 | 0.0 | 0.0 | 0.00 | 0.00 | 0.00 | 46 | 1005.4 |
| 20260505151534 | 24 | 147 | 0.0 | 0.0 | 0.00 | 0.00 | 0.00 | 47 | 1005.2 |
| 20260505124514 | 19 | 148 | 0.0 | 0.0 | 0.00 | 0.00 | 0.00 | 57 | 1006.4 |
| 20260505123009 | 19 | 110 | 0.0 | 0.0 | 0.00 | 0.00 | 0.00 | 57 | 1005.9 |
| 20260505121509 | 19 | 126 | 0.0 | 0.0 | 0.00 | 0.00 | 0.00 | 58 | 1006.3 |
| 20260505114614 | 17 | 166 | 0.0 | 0.0 | 0.00 | 0.00 | 0.00 | 63 | 1006.1 |
| 20260505113055 | 16 | 140 | 0.0 | 0.0 | 0.00 | 0.00 | 0.00 | 65 | 1006.2 |
| 20260505111604 | 16 | 111 | 0.0 | 0.0 | 0.00 | 0.00 | 0.00 | 68 | 1006.0 |
| 20260505101545 | 13 | 167 | 0.0 | 0.0 | 0.00 | 0.00 | 0.00 | 77 | 1005.8 |
| 20260505100045 | 13 | 130 | 0.0 | 0.0 | 0.00 | 0.00 | 0.00 | 75 | 1005.5 |
| 20260505094546 | 13 | 138 | 0.0 | 0.0 | 0.00 | 0.00 | 0.00 | 76 | 1005.4 |
| 20260505093042 | 13 | 136 | 0.0 | 0.0 | 0.00 | 0.00 | 0.00 | 76 | 1005.4 |
| 20260505091541 | 13 | 148 | 0.0 | 0.0 | 0.00 | 0.00 | 0.00 | 74 | 1005.3 |
| 20260505090048 | 13 | 128 | 0.0 | 0.0 | 0.00 | 0.00 | 0.00 | 74 | 1005.3 |
| 20260505084540 | 13 | 166 | 0.0 | 0.0 | 0.00 | 0.00 | 0.00 | 74 | 1005.4 |
| 20260505083047 | 13 | 142 | 0.0 | 0.0 | 0.00 | 0.00 | 0.00 | 73 | 1005.5 |
| 20260505081546 | 14 | 143 | 0.0 | 0.0 | 0.00 | 0.00 | 0.00 | 74 | 1005.4 |
| 20260505080040 | 13 | 151 | 0.0 | 0.0 | 0.00 | 0.00 | 0.00 | 71 | 1005.3 |
| 20260505074542 | 13 | 145 | 0.0 | 0.0 | 0.00 | 0.00 | 0.00 | 69 | 1005.5 |
| 20260505073036 | 13 | 123 | 0.0 | 0.0 | 0.00 | 0.00 | 0.00 | 70 | 1005.1 |
| 20260505071537 | 13 | 121 | 0.0 | 0.0 | 0.00 | 0.00 | 0.00 | 67 | 1005.2 |
| 20260505070038 | 14 | 132 | 0.0 | 0.0 | 0.00 | 0.00 | 0.00 | 66 | 1005.2 |
| 20260505064547 | 14 | 146 | 0.0 | 0.0 | 0.00 | 0.00 | 0.00 | 65 | 1005.3 |
| 20260505063028 | 14 | 135 | 0.0 | 0.0 | 0.00 | 0.00 | 0.00 | 65 | 1005.6 |
| 20260505061536 | 15 | 148 | 0.0 | 0.0 | 0.00 | 0.00 | 0.00 | 64 | 1005.6 |